This demonstration page uses our WeatherBlox Daily Observations layout. Learn more.

Left ArrowRight Arrow

Hourly Observations for May 1, 2021

Temp ( °F °C ) Dew Point ( °F °C ) Humidity (%) Winds ( mph kmh ) Pressure ( in mb ) Visibility ( mi km ) Precip ( " mm )
12:53 am 00:53 Clear 62 16.7 44 6.7 52 52 NNW 6 9 30.04 1017 10 16 0.00 0.00
1:53 am 01:53 Clear 60 15.6 44 6.7 56 56 NW 3 6 30.05 1018 10 16 0.00 0.00
2:53 am 02:53 Clear 60 15.6 44 6.7 56 56 S 3 6 30.04 1017 10 16 0.00 0.00
3:53 am 03:53 Clear 58 14.4 44 6.7 60 60 NNW 3 6 30.03 1017 10 16 0.00 0.00
4:53 am 04:53 Clear 57 13.9 44 6.7 62 62 SE 3 6 30.05 1018 10 16 0.00 0.00
5:53 am 05:53 Clear 56 13.3 43 6.1 62 62 N 3 6 30.05 1018 10 16 0.00 0.00
6:53 am 06:53 Sunny 50 10 44 6.7 80 80 NNW 5 7 30.06 1018 10 16 0.00 0.00
7:53 am 07:53 Sunny 57 13.9 44 6.7 62 62 Calm 30.08 1019 10 16 0.00 0.00
8:53 am 08:53 Sunny 62 16.7 45 7.2 54 54 NNE 5 7 30.09 1019 10 16 0.00 0.00
9:53 am 09:53 Sunny 67 19.4 44 6.7 44 44 NNE 5 7 30.11 1020 10 16 0.00 0.00
10:53 am 10:53 Sunny 70 21.1 39 3.9 32 32 ENE 7 11 30.11 1020 10 16 0.00 0.00
11:53 am 11:53 Sunny 72 22.2 41 5 33 33 N 5 7 30.12 1020 10 16 0.00 0.00
12:53 pm 12:53 Sunny 74 23.3 42 5.6 32 32 NNE 7 11 30.09 1019 10 16 0.00 0.00
1:53 pm 13:53 Sunny 75 23.9 42 5.6 31 31 WNW 3 6 30.07 1018 10 16 0.00 0.00
2:53 pm 14:53 Sunny 76 24.4 41 5 29 29 VRB 5 7 30.04 1017 10 16 0.00 0.00
3:53 pm 15:53 Sunny 77 25 40 4.4 26 26 SW 7 11 30.02 1017 10 16 0.00 0.00
4:53 pm 16:53 Sunny 78 25.6 40 4.4 26 26 undefined N/A 30.00 1016 10 16 0.00 0.00
5:53 pm 17:53 Sunny 78 25.6 41 5 27 27 SSE 6 9 29.98 1015 10 16 0.00 0.00
6:53 pm 18:53 Sunny 78 25.6 40 4.4 26 26 SW 3 6 29.98 1015 10 16 0.00 0.00
7:53 pm 19:53 Sunny 76 24.4 44 6.7 32 32 S 6 9 29.98 1015 10 16 0.00 0.00
8:53 pm 20:53 Clear 74 23.3 46 7.8 37 37 SSE 3 6 29.98 1015 10 16 0.00 0.00
9:53 pm 21:53 Clear 64 17.8 50 10 60 60 Calm 30.00 1016 10 16 0.00 0.00
10:53 pm 22:53 Clear 62 16.7 50 10 65 65 Calm 30.00 1016 10 16 0.00 0.00
11:53 pm 23:53 Clear 60 15.6 51 10.6 72 72 Calm 30.00 1016 10 16 0.00 0.00

Powered by AerisWeather